When you browse on this site, cookies collect data to enhance your experience and personalize the content and advertising you see.
Visit our Privacy Policy to learn more. By continuing to use the site, you agree to this use of cookies and data.
  • In Slovakia
  • List of Countries
  • For 7 days
  • Water Temperature
  • Weather Map
  • Weather Widgets
  • user-avatar
    Login

    Hourly Weather Río Gallegos

    Today, 19 January, Sunday

    Time Temperature Precipitation Wind Pressure Humidity
    00:00 +11°C° 0 mm 8 mps 750 mmHg 64%
    01:00 +11°C° 0 mm 6 mps 750 mmHg 65%
    02:00 +11°C° 0 mm 6 mps 750 mmHg 65%
    03:00 +10°C° 0 mm 6 mps 750 mmHg 66%
    04:00 +10°C° 0 mm 6 mps 749 mmHg 66%
    05:00 +11°C° 0 mm 8 mps 749 mmHg 66%
    06:00 +11°C° 0 mm 9 mps 750 mmHg 65%
    07:00 +12°C° 0 mm 10 mps 750 mmHg 65%
    08:00 +12°C° 0 mm 12 mps 750 mmHg 58%
    09:00 +13°C° 0 mm 14 mps 750 mmHg 51%
    10:00 +14°C° 0 mm 15 mps 751 mmHg 45%
    11:00 +15°C° 0 mm 15 mps 751 mmHg 42%
    12:00 +15°C° 0 mm 16 mps 751 mmHg 39%
    13:00 +16°C° 0 mm 16 mps 751 mmHg 37%
    14:00 +15°C° 0 mm 16 mps 752 mmHg 38%
    15:00 +15°C° 0 mm 16 mps 752 mmHg 40%
    16:00 +14°C° 0 mm 16 mps 752 mmHg 41%
    17:00 +13°C° 0 mm 15 mps 753 mmHg 44%
    18:00 +12°C° 0 mm 14 mps 754 mmHg 47%
    19:00 +10°C° 0 mm 13 mps 754 mmHg 49%
    20:00 +9°C° 0 mm 12 mps 755 mmHg 53%
    21:00 +9°C° 0 mm 11 mps 755 mmHg 57%
    22:00 +8°C° 0 mm 10 mps 756 mmHg 61%
    23:00 +7°C° 0 mm 10 mps 756 mmHg 62%

    Tomorrow, 20 January, Monday

    Time Temperature Precipitation Wind Pressure Humidity
    00:00 +7°C° 0 mm 10 mps 756 mmHg 64%
    01:00 +7°C° 0 mm 9 mps 757 mmHg 66%
    02:00 +7°C° 0 mm 8 mps 757 mmHg 68%
    03:00 +8°C° 0 mm 7 mps 756 mmHg 69%
    04:00 +8°C° 0 mm 5 mps 756 mmHg 71%
    05:00 +8°C° 0.1 mm 5 mps 756 mmHg 71%
    06:00 +9°C° 0.1 mm 5 mps 756 mmHg 71%
    07:00 +9°C° 0.1 mm 5 mps 756 mmHg 72%
    08:00 +10°C° 0.3 mm 6 mps 756 mmHg 74%
    09:00 +10°C° 0.3 mm 7 mps 755 mmHg 77%
    10:00 +11°C° 0.3 mm 8 mps 755 mmHg 79%
    11:00 +11°C° 0.3 mm 7 mps 755 mmHg 81%
    12:00 +10°C° 0.3 mm 7 mps 754 mmHg 83%
    13:00 +10°C° 0.3 mm 7 mps 754 mmHg 85%
    14:00 +11°C° 0.2 mm 6 mps 754 mmHg 83%
    15:00 +12°C° 0.2 mm 5 mps 754 mmHg 81%
    16:00 +12°C° 0.2 mm 4 mps 754 mmHg 79%
    17:00 +13°C° 0.1 mm 4 mps 754 mmHg 78%
    18:00 +13°C° 0.1 mm 4 mps 755 mmHg 77%
    19:00 +13°C° 0.1 mm 4 mps 755 mmHg 76%
    20:00 +13°C° 0 mm 5 mps 755 mmHg 76%
    21:00 +13°C° 0 mm 5 mps 756 mmHg 76%
    22:00 +13°C° 0 mm 6 mps 756 mmHg 76%
    23:00 +12°C° 0 mm 7 mps 756 mmHg 78%

    Day after tomorrow, 21 January, Tuesday

    Time Temperature Precipitation Wind Pressure Humidity
    00:00 +11°C° 0 mm 7 mps 756 mmHg 79%
    01:00 +11°C° 0 mm 7 mps 756 mmHg 81%
    02:00 +11°C° 0 mm 7 mps 756 mmHg 81%
    03:00 +10°C° 0 mm 7 mps 756 mmHg 81%
    04:00 +10°C° 0 mm 6 mps 757 mmHg 80%
    05:00 +11°C° 0 mm 8 mps 757 mmHg 73%
    06:00 +12°C° 0 mm 9 mps 757 mmHg 65%
    07:00 +12°C° 0 mm 10 mps 757 mmHg 58%
    08:00 +13°C° 0 mm 10 mps 757 mmHg 56%
    09:00 +15°C° 0 mm 9 mps 757 mmHg 54%
    10:00 +16°C° 0 mm 8 mps 757 mmHg 52%
    11:00 +15°C° 0.3 mm 8 mps 757 mmHg 60%
    12:00 +13°C° 0.3 mm 8 mps 757 mmHg 68%
    13:00 +12°C° 0.3 mm 8 mps 757 mmHg 75%
    14:00 +13°C° 0.3 mm 8 mps 757 mmHg 69%
    15:00 +15°C° 0.3 mm 8 mps 757 mmHg 62%
    16:00 +16°C° 0.3 mm 8 mps 757 mmHg 56%
    17:00 +15°C° 0 mm 7 mps 758 mmHg 57%
    18:00 +15°C° 0 mm 7 mps 758 mmHg 59%
    19:00 +14°C° 0 mm 6 mps 758 mmHg 60%
    20:00 +13°C° 0 mm 5 mps 759 mmHg 59%
    21:00 +12°C° 0 mm 5 mps 759 mmHg 58%
    22:00 +11°C° 0 mm 4 mps 760 mmHg 57%
    23:00 +10°C° 0 mm 4 mps 760 mmHg 59%

    22 January, Wednesday

    Time Temperature Precipitation Wind Pressure Humidity
    00:00 +10°C° 0 mm 4 mps 760 mmHg 62%
    01:00 +8°C° 0 mm 4 mps 760 mmHg 64%
    02:00 +9°C° 0 mm 3 mps 760 mmHg 66%
    03:00 +9°C° 0 mm 3 mps 760 mmHg 67%
    04:00 +9°C° 0 mm 3 mps 760 mmHg 69%
    05:00 +9°C° 0 mm 3 mps 760 mmHg 67%
    06:00 +10°C° 0 mm 4 mps 760 mmHg 65%
    07:00 +10°C° 0 mm 4 mps 760 mmHg 63%
    08:00 +10°C° 0 mm 4 mps 760 mmHg 63%
    09:00 +11°C° 0 mm 3 mps 760 mmHg 63%
    10:00 +11°C° 0 mm 3 mps 759 mmHg 64%
    11:00 +12°C° 0 mm 4 mps 759 mmHg 60%
    12:00 +13°C° 0 mm 5 mps 758 mmHg 56%
    13:00 +14°C° 0 mm 6 mps 758 mmHg 53%
    14:00 +13°C° 0 mm 6 mps 757 mmHg 55%
    15:00 +12°C° 0 mm 7 mps 757 mmHg 57%
    16:00 +11°C° 0 mm 8 mps 757 mmHg 59%
    17:00 +11°C° 0 mm 8 mps 756 mmHg 62%
    18:00 +10°C° 0 mm 8 mps 756 mmHg 64%
    19:00 +9°C° 0 mm 8 mps 756 mmHg 67%
    20:00 +9°C° 0.1 mm 8 mps 755 mmHg 70%
    21:00 +9°C° 0.1 mm 8 mps 755 mmHg 74%
    22:00 +9°C° 0.1 mm 8 mps 755 mmHg 77%
    23:00 +8°C° 0.3 mm 9 mps 754 mmHg 82%

    23 January, Thursday

    Time Temperature Precipitation Wind Pressure Humidity
    00:00 +10°C° 0.3 mm 9 mps 753 mmHg 86%
    01:00 +9°C° 0.3 mm 10 mps 752 mmHg 90%
    02:00 +10°C° 0.1 mm 9 mps 751 mmHg 91%
    03:00 +10°C° 0.1 mm 8 mps 750 mmHg 91%
    04:00 +10°C° 0.1 mm 7 mps 750 mmHg 92%
    05:00 +11°C° 0 mm 7 mps 749 mmHg 85%
    06:00 +13°C° 0 mm 6 mps 749 mmHg 78%
    07:00 +13°C° 0 mm 6 mps 748 mmHg 70%
    08:00 +13°C° 0 mm 8 mps 748 mmHg 61%
    09:00 +15°C° 0 mm 9 mps 748 mmHg 51%
    10:00 +16°C° 0 mm 11 mps 748 mmHg 41%
    11:00 +14°C° 0.1 mm 12 mps 748 mmHg 44%
    12:00 +14°C° 0.1 mm 13 mps 748 mmHg 47%
    13:00 +13°C° 0.1 mm 14 mps 748 mmHg 50%
    14:00 +13°C° 0.1 mm 14 mps 749 mmHg 48%
    15:00 +12°C° 0.1 mm 14 mps 749 mmHg 46%
    16:00 +12°C° 0.1 mm 14 mps 750 mmHg 43%
    17:00 +10°C° 0 mm 14 mps 750 mmHg 46%
    18:00 +9°C° 0 mm 13 mps 751 mmHg 48%
    19:00 +9°C° 0 mm 13 mps 751 mmHg 51%
    20:00 +8°C° 0 mm 13 mps 752 mmHg 54%
    21:00 +7°C° 0 mm 12 mps 752 mmHg 57%
    22:00 +7°C° 0 mm 11 mps 753 mmHg 60%
    23:00 +6°C° 0 mm 11 mps 753 mmHg 62%

    24 January, Friday

    Time Temperature Precipitation Wind Pressure Humidity
    00:00 +6°C° 0 mm 10 mps 753 mmHg 63%
    01:00 +6°C° 0 mm 10 mps 754 mmHg 64%
    02:00 +6°C° 0 mm 9 mps 754 mmHg 66%
    03:00 +5°C° 0 mm 8 mps 754 mmHg 68%
    04:00 +5°C° 0 mm 7 mps 754 mmHg 69%
    05:00 +7°C° 0 mm 6 mps 754 mmHg 66%
    06:00 +8°C° 0 mm 6 mps 755 mmHg 62%
    07:00 +9°C° 0 mm 5 mps 755 mmHg 58%
    08:00 +10°C° 0 mm 5 mps 754 mmHg 56%
    09:00 +10°C° 0 mm 5 mps 754 mmHg 53%
    10:00 +12°C° 0 mm 5 mps 754 mmHg 51%
    11:00 +11°C° 0 mm 6 mps 753 mmHg 51%
    12:00 +11°C° 0 mm 8 mps 752 mmHg 52%
    13:00 +12°C° 0 mm 9 mps 751 mmHg 52%
    14:00 +11°C° 0.1 mm 9 mps 750 mmHg 57%
    15:00 +11°C° 0.1 mm 10 mps 750 mmHg 62%
    16:00 +9°C° 0.1 mm 11 mps 749 mmHg 67%
    17:00 +9°C° 0.7 mm 10 mps 749 mmHg 72%
    18:00 +9°C° 0.7 mm 10 mps 748 mmHg 78%
    19:00 +8°C° 0.7 mm 9 mps 748 mmHg 84%
    20:00 +9°C° 0.5 mm 8 mps 748 mmHg 85%
    21:00 +10°C° 0.5 mm 7 mps 748 mmHg 87%
    22:00 +10°C° 0.5 mm 5 mps 748 mmHg 88%
    23:00 +10°C° 0 mm 5 mps 748 mmHg 85%
    Show more